This demonstration page uses our WeatherBlox Daily Observations layout. Learn more.

Hourly Observations for December 23, 2015

Temp ( °F °C ) Dew Point ( °F °C ) Humidity (%) Winds ( mph kmh ) Pressure ( in mb ) Visibility ( mi km ) Precip ( " mm )
12:15 am 00:15 Clear 34 1.1 32 0 92 92 N 3 6 29.41 996 10 16.0934 0 0
12:35 am 00:35 Clear 33 0.6 31 -0.3 94 94 N 3 6 29.41 996 10 16.0934 0 0
12:55 am 00:55 Clear 32 -0.2 30 -1.2 93 93 NNE 5 7 29.38 995 7 11.26538 0 0
1:15 am 01:15 Clear 32 0 31 -0.6 96 96 N 8 13 29.38 995 10 16.0934 0 0
1:35 am 01:35 Clear 31 -0.5 30 -1.2 95 95 N 6 9 29.38 995 7 11.26538 0 0
1:55 am 01:55 Clear 31 -0.6 29 -1.4 94 94 N 5 7 29.41 996 10 16.0934 0 0
2:15 am 02:15 Clear 31 -0.4 30 -1.1 95 95 N 7 11 29.38 995 10 16.0934 0 0
2:35 am 02:35 Clear 32 -0.1 30 -1 94 94 N 8 13 29.38 995 10 16.0934 0 0
2:55 am 02:55 Clear 31 -0.7 29 -1.9 92 92 NNE 7 11 29.41 996 10 16.0934 0 0
3:15 am 03:15 Partly Cloudy 31 -0.5 29 -1.5 93 93 N 6 9 29.38 995 10 16.0934 0 0
3:35 am 03:35 Clear 34 0.9 31 -0.7 89 89 N 9 15 29.38 995 10 16.0934 0 0
3:55 am 03:55 Clear 34 1.3 31 -0.8 86 86 N 9 15 29.41 996 10 16.0934 0 0
4:15 am 04:15 Partly Cloudy 35 1.7 30 -1.1 82 82 NNW 12 19 29.41 996 10 16.0934 0 0
4:35 am 04:35 Cloudy 36 2.2 30 -1.3 78 78 NNW 15 24 29.38 995 10 16.0934 0 0
4:55 am 04:55 Cloudy 37 2.5 30 -1.3 76 76 NNW 16 26 29.35 994 10 16.0934 0 0
5:15 am 05:15 Cloudy 36 2.3 30 -1.3 77 77 N 14 22 29.38 995 10 16.0934 0 0
5:35 am 05:35 Cloudy 36 2.3 30 -1.3 77 77 NNW 12 19 29.41 996 10 16.0934 0 0
5:55 am 05:55 Cloudy 36 2.4 30 -1.2 77 77 NNW 12 19 29.41 996 10 16.0934 0 0
6:15 am 06:15 Cloudy 36 2.2 30 -1.1 79 79 NNW 12 19 29.41 996 10 16.0934 0 0
6:35 am 06:35 Cloudy 36 2.2 30 -1.1 79 79 NNW 10 17 29.41 996 10 16.0934 0 0
6:55 am 06:55 Cloudy 37 2.5 30 -1 78 78 N 9 15 29.41 996 10 16.0934 0 0
7:15 am 07:15 Cloudy 36 2.2 30 -1 80 80 N 8 13 29.41 996 10 16.0934 0 0
7:35 am 07:35 Cloudy 35 1.8 31 -0.7 84 84 N 8 13 29.41 996 10 16.0934 0 0
7:55 am 07:55 Cloudy 35 1.8 31 -0.6 84 84 N 6 9 29.41 996 10 16.0934 0 0
8:15 am 08:15 Cloudy 36 2.1 31 -0.4 84 84 N 8 13 29.41 996 10 16.0934 0 0
8:35 am 08:35 Cloudy 36 2.1 32 -0.2 85 85 NW 7 11 29.44 997 10 16.0934 0 0
8:55 am 08:55 Cloudy 36 2.2 32 0 86 86 N 7 11 29.41 996 10 16.0934 0 0
9:15 am 09:15 Cloudy 36 2.3 32 0.1 86 86 N 6 9 29.44 997 10 16.0934 0 0
9:35 am 09:35 Partly Cloudy 37 2.8 32 0.2 83 83 NNW 7 11 29.44 997 10 16.0934 0 0
9:55 am 09:55 Sunny 38 3.1 32 0.2 81 81 NNW 7 11 29.44 997 10 16.0934 0 0
10:15 am 10:15 Sunny 40 4.2 33 0.5 77 77 NNW 12 19 29.44 997 10 16.0934 0 0
10:35 am 10:35 Sunny 41 4.9 32 0.1 71 71 NNW 13 20 29.44 997 10 16.0934 0 0
10:55 am 10:55 Sunny 41 5.2 32 0.1 70 70 NW 13 20 29.44 997 10 16.0934 0 0
11:15 am 11:15 Sunny 42 5.5 32 0.2 69 69 NW 13 20 29.44 997 10 16.0934 0 0
11:35 am 11:35 Partly Cloudy 43 6.1 32 0.1 66 66 NNW 8 13 29.44 997 10 16.0934 0 0
11:55 am 11:55 Mostly Cloudy 42 5.8 32 -0.1 66 66 NNW 10 17 29.44 997 10 16.0934 0 0
12:15 pm 12:15 Mostly Cloudy 43 5.9 30 -1.3 60 60 N 8 13 29.44 997 10 16.0934 0 0
12:35 pm 12:35 Partly Cloudy 44 6.4 29 -1.5 57 57 NNW 9 15 29.44 997 10 16.0934 0 0
12:55 pm 12:55 Partly Cloudy 44 6.6 28 -2 55 55 N 7 11 29.41 996 10 16.0934 0 0
1:15 pm 13:15 Partly Cloudy 44 6.5 28 -2 55 55 NNW 9 15 29.41 996 10 16.0934 0 0
1:35 pm 13:35 Partly Cloudy 42 5.8 29 -1.9 58 58 NW 10 17 29.44 997 10 16.0934 0 0
1:55 pm 13:55 Partly Cloudy 43 6.1 28 -2.4 55 55 N 7 11 29.44 997 10 16.0934 0 0
2:15 pm 14:15 Sunny 43 6.1 27 -2.7 54 54 NNW 8 13 29.44 997 10 16.0934 0 0
2:35 pm 14:35 Partly Cloudy 44 6.5 26 -3.4 50 50 N 8 13 29.41 996 10 16.0934 0 0
2:55 pm 14:55 Sunny 44 6.5 26 -3.3 50 50 NW 6 9 29.41 996 10 16.0934 0 0
3:15 pm 15:15 Sunny 44 6.5 25 -3.7 48 48 NNW 6 9 29.41 996 10 16.0934 0 0
3:35 pm 15:35 Sunny 44 6.5 24 -4.4 46 46 NW 7 11 29.47 998 10 16.0934 0 0
3:55 pm 15:55 Sunny 43 6.2 24 -4.4 47 47 NW 8 13 29.47 998 10 16.0934 0 0
4:15 pm 16:15 Sunny 43 6 24 -4.4 48 48 WNW 7 11 29.47 998 10 16.0934 0 0
4:35 pm 16:35 Sunny 42 5.4 25 -4.1 51 51 WNW 5 7 29.47 998 10 16.0934 0 0
4:55 pm 16:55 Sunny 40 4.5 25 -3.7 56 56 Calm 29.5 999 10 16.0934 0 0
5:15 pm 17:15 Clear 38 3.5 26 -3.6 60 60 Calm 29.53 1000 10 16.0934 0 0
5:35 pm 17:35 Clear 37 2.5 25 -4 63 63 Calm 29.53 1000 10 16.0934 0 0
5:55 pm 17:55 Clear 36 2.2 25 -3.9 64 64 Calm 29.53 1000 10 16.0934 0 0
6:15 pm 18:15 Partly Cloudy 34 1.3 25 -4.1 68 68 SW 3 6 29.53 1000 10 16.0934 0 0
6:35 pm 18:35 Clear 33 0.6 25 -4.1 71 71 Calm 29.59 1002 10 16.0934 0 0
6:55 pm 18:55 Clear 33 0.3 25 -4 73 73 Calm 29.59 1002 10 16.0934 0 0
7:15 pm 19:15 Clear 32 0 24 -4.3 73 73 Calm 29.59 1002 10 16.0934 0 0
7:35 pm 19:35 Clear 33 0.3 25 -4.1 73 73 SW 3 6 29.62 1003 10 16.0934 0 0
7:55 pm 19:55 Clear 33 0.7 24 -4.7 67 67 SW 5 7 29.62 1003 10 16.0934 0 0
8:15 pm 20:15 Clear 32 0 23 -5 69 69 SW 6 9 29.62 1003 10 16.0934 0 0
8:35 pm 20:35 Clear 32 0 23 -5.1 69 69 SW 5 7 29.62 1003 10 16.0934 0 0
8:55 pm 20:55 Clear 32 0 23 -5.1 69 69 SW 5 7 29.62 1003 10 16.0934 0 0
9:15 pm 21:15 Clear 29 -1.8 22 -5.8 74 74 Calm 29.65 1004 10 16.0934 0 0
9:35 pm 21:35 Clear 28 -2 22 -5.5 77 77 Calm 29.68 1005 10 16.0934 0 0
9:55 pm 21:55 Clear 26 -3.2 22 -5.6 84 84 Calm 29.68 1005 10 16.0934 0 0
10:15 pm 22:15 Clear 28 -2.5 22 -5.6 80 80 SSW 5 7 29.68 1005 10 16.0934 0 0
10:35 pm 22:35 Clear 29 -1.8 22 -5.4 77 77 Calm 29.68 1005 10 16.0934 0 0
10:55 pm 22:55 Clear 29 -1.7 24 -4.6 81 81 S 3 6 29.68 1005 10 16.0934 0 0
11:15 pm 23:15 Clear 29 -1.7 23 -5 78 78 Calm 29.71 1006 10 16.0934 0 0
11:35 pm 23:35 Clear 28 -2 24 -4.6 83 83 Calm 29.71 1006 10 16.0934 0 0
11:55 pm 23:55 Clear 28 -2.1 24 -4.7 83 83 WNW 3 6 29.71 1006 10 16.0934 0 0

Powered by AerisWeather